RH
37 40 43 42 37 32 28 30 29 30 31 31 31 31 32 35 36 35 29 23 18 13 15 25 34 30 25 23 20 18 19 21 26 27 27 26 26 23 19 14 13 15 16
38 41 42 39 39 36 31 29 31 29 30 31 31 30 29 29 29 29 23 15 11 14 33 37 38 38 27 22 19 16 13 14 16 17 18 18 16 13 13 13 14 15 18
41 39 40 37 38 43 37 38 35 33 31 30 30 29 29 28 25 19 13 13 12 14 28 30 31 22 24 21 17 13 12 13 14 15 15 15 15 15 14 15 17 18 19
43 40 39 37 37 38 37 37 40 38 35 32 31 30 30 27 21 14 14 14 14 19 23 21 22 23 20 16 13 13 15 16 17 16 16 18 22 23 22 22 22 23 24
44 40 40 38 37 37 34 33 37 41 38 35 33 31 30 27 20 16 15 16 17 20 23 23 21 19 15 15 16 18 21 22 24 26 28 28 29 31 29 29 28 29 28
41 41 41 40 38 37 33 30 33 36 37 39 35 32 31 28 22 21 19 18 17 18 20 22 22 22 24 24 23 25 27 29 30 29 30 31 33 36 31 30 37 39 43
42 41 40 38 37 37 35 33 33 34 34 38 36 35 32 29 27 25 25 25 24 24 22 22 24 27 28 29 29 29 29 30 31 32 33 33 33 32 29 30 34 36 36
39 40 38 38 36 37 36 34 34 35 33 33 36 35 31 29 29 30 30 30 30 29 29 30 30 30 31 32 32 32 32 32 34 35 35 34 34 32 30 28 28 36 36
33 37 38 37 37 38 37 36 36 36 36 34 34 34 35 33 33 31 34 36 36 36 37 37 39 37 36 34 33 33 33 34 34 34 33 33 32 31 29 29 30 36 35
31 34 36 36 37 39 39 39 38 38 38 36 34 33 37 40 38 36 36 34 37 41 43 44 41 41 41 40 39 38 36 34 32 31 31 32 32 31 33 39 43 43 41
32 33 36 37 38 39 40 42 41 41 41 39 39 38 39 43 43 40 40 41 39 41 42 41 40 42 43 44 45 42 37 34 33 32 31 31 33 39 43 40 42 38 37
33 35 35 40 44 46 48 46 49 44 42 43 42 43 43 43 45 44 44 44 46 46 46 46 45 43 42 42 42 41 39 37 35 33 31 31 37 39 37 38 35 33 34
37 36 36 38 46 52 54 55 50 47 43 43 44 46 46 44 45 48 47 47 48 49 49 47 49 49 47 44 42 38 35 34 31 28 28 34 34 33 31 31 30 28 25
29 34 39 41 43 49 54 54 52 47 45 45 47 48 48 47 47 49 49 50 48 50 53 53 53 49 48 48 42 37 35 32 29 28 27 29 32 33 27 24 24 26 25
32 30 33 38 40 45 50 53 52 49 48 49 46 46 48 48 46 48 51 53 53 50 51 53 54 56 53 50 45 38 34 30 28 27 27 28 29 32 30 27 26 27 27
32 32 35 35 38 43 45 47 49 51 53 52 48 47 48 48 45 45 49 53 55 52 50 53 55 55 52 52 48 40 37 33 30 28 27 27 27 29 32 30 28 29 28
35 34 36 37 41 40 43 44 46 49 49 49 51 49 45 45 46 44 47 52 54 53 53 57 58 57 57 56 48 42 40 37 36 34 32 29 28 29 30 32 32 32 29
28 34 38 41 42 41 39 45 48 48 47 45 47 47 45 43 43 44 47 52 56 57 56 59 59 59 60 56 47 44 42 41 40 37 35 33 31 31 32 32 35 37 38
27 30 35 39 43 40 36 39 47 53 56 55 51 46 45 44 46 47 50 57 61 59 60 63 63 61 60 54 47 46 44 44 41 38 37 36 36 36 35 34 35 37 39
26 28 30 31 32 32 30 33 42 47 52 56 57 55 52 51 52 52 57 61 60 59 62 65 65 60 59 54 48 45 45 43 40 41 41 41 40 40 41 40 37 37 37
21 25 27 30 30 31 32 32 35 38 46 53 57 62 59 60 57 56 58 66 62 62 62 64 64 60 57 52 48 46 44 42 41 41 42 44 45 45 44 43 42 41 40
21 22 23 26 31 33 34 35 35 38 43 47 56 61 61 63 66 65 60 57 62 62 62 61 62 60 56 50 48 47 44 44 44 44 44 47 48 49 48 47 47 45 45
22 24 25 25 25 27 28 33 35 38 38 40 44 49 55 64 68 68 65 60 57 59 61 63 67 67 62 53 48 46 46 46 47 48 47 48 50 50 51 50 49 48 49
18 21 25 28 29 29 28 27 31 35 35 37 42 47 50 52 61 68 70 70 71 67 69 70 71 71 65 59 52 51 50 50 50 52 50 50 51 51 51 51 51 51 51
18 18 19 25 29 32 33 34 34 32 32 35 38 46 51 54 58 71 81 82 81 82 82 80 80 76 74 67 64 58 55 55 56 56 53 54 54 54 55 54 53 53 52
17 18 18 19 20 22 24 26 29 35 36 35 37 41 46 52 57 63 65 74 77 79 81 84 86 83 79 80 70 70 65 61 61 60 58 57 58 58 58 58 57 56 54